User: anonymous   Login
Location: ???????
(54.9567°N, 38.2836°E)
Time: 16:25:50
(UTC+00:00)
Language:

Cosmos 1633 Rocket - Orbit

View from above orbital plane
View from above orbital plane
View from above satellite
View from above satellite

Ground track
Ground track

The orbit data is extracted from the following two-line orbital elements,

1 15593U 85020B   24170.87744521  .00000592  00000-0  65692-4 0  9998
2 15593  82.5379  27.3053 0010255 219.1696 140.8779 14.85596306102800
Epoch (UTC): 18 June 2024 21:03:31
Eccentricity: 0.0010255
inclination: 82.5379°
perigee height: 604 km
apogee height: 619 km
right ascension of ascending node: 27.3053°
argument of perigee: 219.1696°
revolutions per day: 14.85596306
mean anomaly at epoch: 140.8779°
orbit number at epoch: 10280

The dashed part of the orbit path shows where the satellite is in the earth's shadow,  

DLR